Selawik, AK

8:32 PM AKDT on March 22, 2017 (GMT -0800)
Selawik

Weather History for PASK - September, 2012

Change the Weather History Date:

Wednesday, September 5, 2012

  Actual Average Record
Temperature  
Mean Temperature 50 °F -  
Max Temperature 53 °F 50 °F 62 °F (2015)
Min Temperature 46 °F 39 °F 33 °F (2003)
Degree Days  
Heating Degree Days 16    
Moisture  
Dew Point 42 °F    
Average Humidity 84    
Maximum Humidity 87    
Minimum Humidity 72    
Precipitation  
Precipitation 0.00 in - - ()
Sea Level Pressure  
Sea Level Pressure 29.21 in    
Wind  
Wind Speed 12 mph (ESE)    
Max Wind Speed 14 mph    
Max Gust Speed 17 mph    
Visibility 10 miles    
Events      
Averages and records for this station are not official NWS values.
T = Trace of Precipitation, MM = Missing Value Source: NWS Daily Summary

Daily Weather History Graph

Daily Weather History Graph

Search for Another Location

Airport or City:

Trip Planner

Search our weather history database for the weather conditions in past years. The results will help you decide how hot, cold, wet, or windy it might be!

Date:

Astronomy

Sep. 05, 2012 Rise Set
Actual Time 7:28 AM AKDT 9:45 PM AKDT
Civil Twilight 6:30 AM AKDT 10:43 PM AKDT
Nautical Twilight 5:09 AM AKDT 12:03 AM AKDT
Astronomical Twilight 3:10 AM AKDT 2:05 AM AKDT
Moon 9:25 PM AKDT (9/5) 3:37 PM AKDT (9/5)
Length of Visible Light 16h 12m
Length of Day
14h 17m
Waning Gibbous, 75% of the Moon is Illuminated
Sep 5
Waning Gibbous
Sep 8
Last Quarter
Sep 15
New
Sep 22
First Quarter
Sep 29
Full

Hourly Weather History & Observations

Time (AKDT) Temp. Windchill Dew Point Humidity Pressure Visibility Wind Dir Wind Speed Gust Speed Precip Events Conditions
12:16 AM 48.2 °F - 42.8 °F 82% 29.24 in 10.0 mi East 13.8 mph - N/A   Overcast
12:36 AM 48.2 °F - 42.8 °F 82% 29.23 in 10.0 mi East 12.7 mph - N/A   Overcast
12:56 AM 46.4 °F 41.1 °F 42.8 °F 87% 29.23 in 10.0 mi ESE 11.5 mph - N/A   Overcast
1:16 AM 46.4 °F 41.1 °F 41.0 °F 81% 29.24 in 10.0 mi ESE 11.5 mph 16.1 mph N/A   Overcast
1:36 AM 46.4 °F 40.7 °F 41.0 °F 81% 29.23 in 10.0 mi ESE 12.7 mph - N/A   Overcast
1:56 AM 46.4 °F 40.7 °F 41.0 °F 81% 29.22 in 10.0 mi SE 12.7 mph 16.1 mph N/A   Overcast
2:16 AM 46.4 °F 40.7 °F 41.0 °F 81% 29.22 in 10.0 mi ESE 12.7 mph 16.1 mph N/A   Overcast
2:36 AM 46.4 °F 41.5 °F 41.0 °F 81% 29.21 in 10.0 mi ESE 10.4 mph - N/A   Overcast
2:56 AM 46.4 °F 41.1 °F 41.0 °F 81% 29.21 in 10.0 mi East 11.5 mph - N/A   Overcast
3:16 AM 46.4 °F 40.7 °F 41.0 °F 81% 29.20 in 10.0 mi ESE 12.7 mph 16.1 mph N/A   Overcast
3:36 AM 46.4 °F 41.5 °F 41.0 °F 81% 29.20 in 10.0 mi ESE 10.4 mph - N/A   Overcast
3:56 AM 46.4 °F 40.7 °F 41.0 °F 81% 29.21 in 10.0 mi East 12.7 mph - N/A   Overcast
4:16 AM 46.4 °F 41.1 °F 42.8 °F 87% 29.20 in 10.0 mi East 11.5 mph - N/A   Overcast
4:36 AM 46.4 °F 40.4 °F 42.8 °F 87% 29.20 in 10.0 mi East 13.8 mph - N/A   Overcast
4:56 AM 46.4 °F 40.4 °F 42.8 °F 87% 29.20 in 10.0 mi East 13.8 mph - N/A   Overcast
5:16 AM 46.4 °F 40.4 °F 42.8 °F 87% 29.20 in 10.0 mi East 13.8 mph - N/A   Overcast
5:36 AM 46.4 °F 40.7 °F 42.8 °F 87% 29.20 in 10.0 mi East 12.7 mph - N/A   Overcast
5:56 AM 46.4 °F 40.7 °F 42.8 °F 87% 29.19 in 10.0 mi East 12.7 mph - N/A   Overcast
6:16 AM 46.4 °F 40.7 °F 42.8 °F 87% 29.18 in 10.0 mi East 12.7 mph - N/A   Overcast
6:36 AM 46.4 °F 40.4 °F 42.8 °F 87% 29.18 in 10.0 mi East 13.8 mph - N/A   Overcast
6:56 AM 46.4 °F 40.7 °F 42.8 °F 87% 29.18 in 10.0 mi ESE 12.7 mph 17.3 mph N/A   Mostly Cloudy
7:16 AM 46.4 °F 40.7 °F 42.8 °F 87% 29.18 in 10.0 mi ESE 12.7 mph 16.1 mph N/A   Overcast
7:36 AM 46.4 °F 40.7 °F 42.8 °F 87% 29.18 in 10.0 mi ESE 12.7 mph - N/A   Overcast
7:56 AM 46.4 °F 41.1 °F 42.8 °F 87% 29.18 in 10.0 mi ESE 11.5 mph - N/A   Mostly Cloudy
12:36 PM 50.0 °F - 44.6 °F 82% 29.21 in 10.0 mi ESE 8.1 mph - N/A   Overcast
2:15 PM 51.8 °F - 44.6 °F 76% 29.23 in 10.0 mi ESE 8.1 mph - N/A   Overcast
4:07 PM 53.6 °F - 44.6 °F 72% 29.24 in 10.0 mi ESE 11.5 mph - N/A   Overcast
10:05 PM 46.4 °F 44.3 °F 42.8 °F 87% 29.31 in 10.0 mi SE 4.6 mph - N/A   Overcast